www.pogodaiklimat.ru

Погода и климат >> Архив погоды >> Россия >> Астраханская область >> Черный Яр


ПОГОДА в Черный Яр

  • Прогноз погоды в Черный Яр
  • Монитор погоды в Черный Яр

АРХИВ ПОГОДЫ в Черный Яр

Время (UTC), дата Ветер
(напр.,м/с)
 
Видим.   Явления Облачность Т
(С)
Тd
(С)
f
(%)
Тe
(С)
Тes
(С)
Комфортность P
(гПа)
Po
(гПа)
Тmin
(С)
Tmax
(С)
R
(мм)
R24
(мм)
S
(см)
12 19.03 С 4 10 км ясно +8.9 -4.2 39 +7 +10 1027.8 1027.1
15 19.03 С 3 10 км ясно +6.3 -4.2 47 +4 +4 1028.0 1027.3 +9.2
18 19.03 С 3 10 км ясно +1.5 -3.6 69 -3 -3 1029.3 1028.6
21 19.03 С 2 10 км ясно -0.8 -4.0 79 -4 -4 1028.7 1028.0
00 20.03 СЗ 2 4000 м дымка ясно -2.4 -3.5 92 -7 -7 1028.1 1027.4
03 20.03 С 1 4000 м дымка ясно -3.5 -3.9 97 -6 -6 1028.0 1027.3 -3.5
06 20.03 С 2 10 км ясно +2.8 -3.6 63 0 +6 1028.1 1027.5 -3.5
09 20.03 С 3 10 км ясно +8.1 -3.8 43 +6 +15 опасность
простуды
1027.2 1026.5
12 20.03 С 3 10 км ясно +11.0 -3.8 35 +10 +14 1025.5 1024.8
15 20.03 С 2 10 км ясно +9.0 -1.3 48 +8 +8 1025.1 1024.4 +11.3
18 20.03 С 2 10 км ясно +4.0 -0.8 71 +1 +1 1025.7 1025.0
21 20.03 СВ 1 4000 м дымка ясно +0.7 -0.6 91 -1 -1 1024.9 1024.2
00 21.03 штиль 0 4000 м дымка ясно -2.0 -2.1 99 -3 -3 1024.4 1023.6
03 21.03 СЗ 1 4000 м дымка ясно -2.6 -2.9 98 -5 -5 1024.0 1023.3 -2.9
06 21.03 З 1 10 км ясно +5.3 +0.6 72 +4 +11 1023.7 1023.0
09 21.03 ЮЗ 2 10 км ясно +11.3 -0.1 45 +11 +21 опасность
простуды
1022.6 1022.0
12 21.03 ЮЗ 2 10 км 1/0
[Ci fib]
+12.8 +0.5 43 +12 +17 1020.8 1020.1
15 21.03 Ю 2 10 км 1/0
[Ac cuf]
+10.8 +1.1 51 +10 +10 1020.0 1019.3 +13.1
18 21.03 ЮВ 2 10 км ясно +6.5 +1.3 69 +4 +4 1019.7 1019.0
21 21.03 ЮВ 2 10 км 10/0
[Ac und]
+6.2 -0.1 64 +4 +4 1018.0 1017.4
00 22.03 З 5 4000 м дымка 10/0
[Ac cuf]
+3.9 +3.2 95 -1 -1 1017.4 1016.7
03 22.03 З 4 4000 м дымка {ливн. осадки} 10/10 300 м
[St]
+2.5 +2.4 99 -3 -3 1018.2 1017.5 +2.5 0.8
06 22.03 СЗ 5 4000 м дымка {ливн. осадки} 10/6 600 м
[Cu hum Ac cast Ci fib]
+3.2 +2.1 92 -2 -2 1019.1 1018.4 +2.1
09 22.03 З 3 10 км 8/3 600 м
[Cu med, cong Ci fib]
+6.8 -0.7 59 +4 +10 1018.2 1017.6
12 22.03 ЮЗ 3 10 км 10/8 600 м
[Cb cap Ac cast Ci fib]
+7.6 -2.4 49 +5 +6 1016.6 1015.9
15 22.03 З 4 10 км 10/3 600 м
[Cb cap Ac cuf]
+4.7 +1.0 77 +1 +1 1015.7 1015.0 +8.0
18 22.03 ЮЗ 3 4000 м дымка {ливн. осадки} 10/3 600 м
[Sc diur, vesp Ac cuf]
+3.3 +2.7 96 -1 -1 1015.6 1014.9
21 22.03 Ю 2 4000 м дымка 10/0
[Ac trans]
+2.0 +1.0 93 -1 -1 1013.8 1013.1
00 23.03 Ю 4 4000 м дымка 10/0
[Ac As]
+3.1 +1.5 89 -2 -2 1011.6 1010.9
03 23.03 Ю 4 10 км 10/3 600 м
[Cb cap As op]
+2.9 +0.8 86 -2 -2 1009.3 1008.6 +1.7 0.6
06 23.03 Ю 5
{10}
4000 м дымка {ливн. осадки} 10/10 600 м
[Cb cap]
+4.1 +3.7 97 -1 -1 1009.8 1009.1
09 23.03 ЮЗ 6
{10}
10 км {ливн. осадки} 10/3 600 м
[Sc diur, vesp Ac lent]
+6.0 +1.0 70 +1 +2 1011.8 1011.1
12 23.03 ЮЗ 4 10 км {ливн. осадки} 10/1 600 м
[Cb cap Ac lent]
+7.7 -0.7 55 +5 +5 1012.4 1011.7
15 23.03 Ю 2 10 км 10/3 600 м
[Cb cap Ac cuf Ci fib]
+7.2 -1.8 53 +6 +6 1013.7 1013.0 +8.6 2
18 23.03 З 1 10 км 10/4 600 м
[Sc Ac As]
+4.6 +0.3 74 +3 +3 1015.4 1014.7
21 23.03 ЮЗ 1 4000 м слаб. дождь 10/0
[As op]
+2.9 +1.8 92 +1 +1 1016.9 1016.2
00 24.03 В 1 4000 м слаб. ливневой дождь 10/10 600 м
[Cb cap]
+2.0 +1.5 96 0 0 1015.8 1015.1
03 24.03 штиль 0 4000 м в посл. час ливневой снег 10/0
[As op]
+0.1 -0.2 98 -1 -1 1016.1 1015.4 +0.1 7
06 24.03 З 2 4000 м в посл. час ливневой снег 10/0
[As trans]
+0.8 +0.5 98 -3 -1 1016.2 1015.5
09 24.03 З 2 4000 м дымка 10/8 600 м
[Sc diur, vesp Ac cuf]
+3.3 +2.6 95 0 +1 1014.8 1014.1
12 24.03 В 2 10 км 10/0
[Ac cast]
+4.7 +2.6 86 +2 +4 1012.9 1012.2
15 24.03 Ю 2 10 км 10/3 600 м
[Cb cap Ac lent]
+4.1 +2.5 89 +1 +1 1011.3 1010.6 +5.2 1
18 24.03 ЮЗ 3 4000 м дымка 10/0
[Ac trans]
+1.2 -0.3 90 -3 -3 1011.1 1010.4
21 24.03 ЮЗ 4 4000 м дымка 10/0
[Ac und]
+1.2 +0.8 97 -4 -4 1009.8 1009.1
00 25.03 ЮЗ 5 4000 м в посл. час ливневой дождь 10/3 600 м
[Cb cap Ac lent]
+1.6 +1.3 98 -4 -4 1009.9 1009.2
03 25.03 З 6 4000 м дымка 10/8 600 м
[Sc diur, vesp Ac lent]
+1.6 +1.0 96 -5 -5 1011.3 1010.6 +0.5 0.3
06 25.03 ЮЗ 6 10 км 3/3 600 м
[Cu hum]
+3.8 +1.3 84 -2 -0 1012.5 1011.8
09 25.03 ЮЗ 6-11
{12}
10 км 4/4 600 м
[Cu hum]
+8.0 +0.5 59 +4 +7 1012.2 1011.6
12 25.03 З 5
{12}
10 км 4/4 1000 м
[Cu hum]
+10.0 -2.9 40 +7 +9 1012.7 1012.0
15 25.03 З 1
{11}
10 км 6/0
[Ac cast]
+8.0 -1.9 50 +8 +8 1014.4 1013.7 +10.2
18 25.03 ЮЗ 2 10 км ясно +3.0 -0.6 77 0 0 1015.9 1015.2
21 25.03 Ю 2 4000 м дымка ясно +1.4 -0.3 88 -2 -2 1016.9 1016.2
00 26.03 Ю 2 4000 м дымка ясно +0.9 -0.7 89 -3 -3 1017.6 1016.9
03 26.03 ЮВ 2 4000 м дымка 10/0
[Ac cast Ci fib]
+0.5 -0.4 94 -3 -3 1018.3 1017.6 +0.3
06 26.03 ЮВ 3 10 км 3/0
[Ci fib]
+6.1 +2.4 77 +3 +8 1018.9 1018.3
09 26.03 Ю 5
{10}
10 км 5/5 1000 м
[Cu med, cong]
+12.1 -0.3 42 +10 +13 1018.3 1017.6

 

Местоположение метеостанции Черный Яр (Астраханская область, Россия): широта 48.07 долгота 46.12 высота над уровнем моря 5 м.

В архиве по умолчанию представлена погода в Черный Яр за последнюю неделю. Архивные данные за месяц целиком и за предыдущие месяцы, начиная с января 2011 года, Вы можете получить, выбрав интересующий диапазон дат из раскрывающегося списка и нажав кнопку "Ввод!".


*Определитесь, кто Вы:
робот инопланетянин человек

Внимание! Время в таблицах - всемирное. Для получения местного времени необходимо прибавить поправку, которая равна 4 ч.

Смотрите также архив погоды в соседних городах и на ближайших метеорологических станциях:

Погода в Верхнем Баскунчаке (Астраханская область, Россия) (48 км)
Погода в Юсте (Калмыкия, Россия) (106 км)
Погода в Малых Дербетах (Калмыкия, Россия) (107 км)
Погода в Харабали (Астраханская область, Россия) (113 км)
Погода в Урде (Западно-Казахстанская область, Казахстан) (124 км)
Погода в Эльтоне (Волгоградская область, Россия) (130 км)
Погода в Волгограде город (Волгоградская область, Россия) (140 км)
Погода в Кетченерах (Калмыкия, Россия) (143 км)
Погода в Волгограде (Волгоградская область, Россия) (151 км)
Погода в Жанибеке (Западно-Казахстанская область, Казахстан) (156 км)

Пояснения к столбцам:

Ветер - указаны скорость ветра в м/с - средняя за 10 мин, порывы в срок и между сроками (в фигурных скобках) и направление, откуда дует ветер: С - северный, СВ - северо-восточный, В - восточный, ЮВ - юго-восточный, Ю - южный, ЮЗ - юго-западный, З - западный, СЗ - северо-западный.
Видимость - горизонтальная дальность видимости в метрах или километрах. При видимости от 1 до 10 км при отсутствии осадков обычно наблюдается дымка, при ухудшении видимости до 1 км и менее - туман. В сухую погоду видимость может ухудшаться дымом, пылью или мглою.
Явления - указаны атмосферные явления, наблюдавшиеся в срок или в последний час перед сроком; фигурными скобками обозначены явления, наблюдавшиеся между сроками (за 1-3 часа до срока); квадратными скобками обозначены град или гололедные отложения с указанием их диаметра в мм.
Облачность - указаны через наклонную черту общая и нижняя облачность в баллах и высота нижней границы облаков в метрах; квадратными скобками обозначены формы облаков: Ci - перистые, Cs - перисто-слоистые, Cc - перисто-кучевые, Ac - высококучевые, As - высокослоистые, Sc - слоисто-кучевые, Ns - слоисто-дождевые, Cu - кучевые, Cb - кучево-дождевые. Подробнее классификацию облаков см. в Атласе облаков (PDF).
T - Температура воздуха - температура, измеренная на высоте 2 м над землей.
Td - Температура точки росы - температура, при понижении до которой содержащийся в воздухе водяной пар достигнет насыщения.
f - Относительная влажность воздуха - влажноcть воздуха, измеренная на высоте 2 м над землей.
Te - Эффективная температура - температура, которую ощущает одетый по сезону человек в тени. Характеристика душности погоды. При расчете учитывается влияние влажности воздуха и скорости ветра на теплоощущения человека.
Tes - Эффективная температура на солнце - температура, которую ощущает человек, с поправкой на солнечный нагрев. Характеристика знойности погоды. Зависит от высоты солнца над горизонтом, облачности и скорости ветра. Ночью, в пасмурную погоду, а также при ветре 12 м/с и более поправка равна нулю.
P - Атмосферное давление - приведенное к уровню моря атмосферное давление.
Po - Атмосферное давление - измеренное на уровне метеостанции атмосферное давление.
Tmin - Минимальная температура - минимум температуры воздуха на высоте 2 м над землей.
Tmax - Максимальная температура - максимум температуры воздуха на высоте 2 м над землей.
R - Количество осадков - Количество выпавших осадков за период времени, мм. При наведении курсора мыши на число - период времени, за который выпало указанное количество осадков.
R24 - Количество осадков - Количество выпавших осадков за 24 часа, мм.
S - Снежный покров - Высота снежного покрова, см. При наведении курсора мыши на число - состояние снежного покрова и степень покрытия местности в баллах.